Language: 


Des rapports , des résumés tant et plus, au choix de chacun....


Données statistiques de la station
Quotidien Rapport Février 26, 2017 Unités:  Anglais    Métrique   les deux
« Précédent Jour
Suivant Jour »
Quotidien Hebdomadaire Mensuel Annuel Actuel
  Haut: Bas: Moyen:
Température: 54.3 °F 32 °F 49.3 °F
Pt de rosée: 50.9 °F 39 °F 45 °F
Humidité: 94 % 0 % 85 %
Vitesse du vent: 17.2 mph 2.5 mph 7.8 mph
Rafales: 20.1 mph - -
Vent:- - SW
Pression: 29.9 in 0 in -
Précipitation: 0 in    
Historical Graphs
 
 
Données statistiques pour Février 26, 2017
Heure Température Point de rosée Pression Vent Vitesse du vent Refales Humidité Pluie (taux horaire)
00:00 46.9 °F 39.7 °F 29.9 in SW 7.4 mph 12.1 mph 76 % 0 in
00:05 46.9 °F 39.6 °F 29.9 in SSW 5.8 mph 10.3 mph 75 % 0 in
00:10 46.9 °F 39.6 °F 29.9 in SSW 5.8 mph 11.4 mph 75 % 0 in
00:15 46.9 °F 39.6 °F 29.9 in SSW 6 mph 12.8 mph 75 % 0 in
00:20 46.9 °F 39.6 °F 29.9 in SSW 14.8 mph 14.8 mph 75 % 0 in
00:25 46.9 °F 39.6 °F 29.9 in SSW 6.5 mph 14.8 mph 75 % 0 in
00:30 46.9 °F 39.6 °F 29.9 in SW 7.8 mph 12.5 mph 75 % 0 in
00:35 46.9 °F 39.6 °F 29.9 in WSW 8.7 mph 10.7 mph 75 % 0 in
00:40 46.9 °F 39.6 °F 29.9 in SSW 6 mph 12.3 mph 75 % 0 in
00:45 46.9 °F 39.6 °F 29.9 in SSW 6.5 mph 12.3 mph 75 % 0 in
00:50 46.9 °F 39.6 °F 29.9 in SSW 5.8 mph 11 mph 75 % 0 in
00:55 46.8 °F 39.4 °F 29.9 in SW 10.1 mph 11 mph 75 % 0 in
01:00 46.8 °F 39.4 °F 29.9 in SSW 8.7 mph 11.2 mph 75 % 0 in
01:05 46.8 °F 39.6 °F 29.9 in SSW 5.6 mph 11.2 mph 76 % 0 in
01:10 46.8 °F 39.6 °F 29.9 in SW 8.1 mph 11 mph 76 % 0 in
01:15 46.6 °F 39.6 °F 29.9 in SW 9.8 mph 11 mph 76 % 0 in
01:20 46.6 °F 39.6 °F 29.9 in SW 8.7 mph 11 mph 76 % 0 in
01:25 46.6 °F 39.6 °F 29.9 in SSW 6 mph 11 mph 76 % 0 in
01:30 46.6 °F 39.6 °F 29.9 in SW 9.8 mph 11 mph 76 % 0 in
01:35 46.6 °F 39.6 °F 29.9 in WSW 7.2 mph 10.5 mph 76 % 0 in
01:40 46.6 °F 39.6 °F 29.9 in SSW 5.8 mph 10.5 mph 76 % 0 in
01:45 46.6 °F 39 °F 29.9 in SW 9.6 mph 10.5 mph 75 % 0 in
01:50 46.6 °F 39 °F 29.9 in SW 8.1 mph 11 mph 75 % 0 in
01:55 46.6 °F 39 °F 29.9 in SW 7.6 mph 12.5 mph 75 % 0 in
02:02 32 °F 39.2 °F 0 in SSW 5.8 mph 10.7 mph 0 % 0 in
02:07 46.6 °F 39 °F 29.9 in SW 7.2 mph 10.7 mph 75 % 0 in
02:12 46.6 °F 39 °F 29.9 in SW 8.7 mph 10.3 mph 75 % 0 in
02:17 46.6 °F 39 °F 29.9 in SSW 4 mph 11 mph 75 % 0 in
02:22 46.6 °F 39.4 °F 29.9 in SSW 7.6 mph 11 mph 76 % 0 in
02:27 46.6 °F 39.4 °F 29.9 in SSW 4 mph 9.8 mph 76 % 0 in
02:32 46.2 °F 39 °F 29.9 in SSW 6.5 mph 8.5 mph 76 % 0 in
02:37 46.2 °F 39 °F 29.9 in SSW 8.1 mph 8.9 mph 76 % 0 in
02:42 46.2 °F 39 °F 29.9 in WSW 5.8 mph 11 mph 76 % 0 in
02:43 46.2 °F 39 °F 29.9 in SSW 3.8 mph 11 mph 76 % 0 in
02:48 46.2 °F 39 °F 29.9 in SW 6 mph 11 mph 76 % 0 in
02:53 46.2 °F 39 °F 29.9 in SSW 5.4 mph 9.8 mph 76 % 0 in
02:58 46.2 °F 39 °F 29.9 in SSW 7.2 mph 9.6 mph 76 % 0 in
03:03 46.2 °F 39 °F 29.9 in SW 5.6 mph 11 mph 76 % 0 in
03:08 46 °F 39.4 °F 29.9 in South 8.1 mph 8.7 mph 77 % 0 in
03:13 46 °F 39.4 °F 29.9 in WSW 10.7 mph 10.7 mph 77 % 0 in
03:18 46 °F 39.4 °F 29.9 in SW 7.6 mph 12.8 mph 77 % 0 in
03:23 46 °F 39.4 °F 29.8 in SW 8.5 mph 12.8 mph 77 % 0 in
03:28 46 °F 39.4 °F 29.8 in SW 7.6 mph 10.5 mph 77 % 0 in
03:33 46 °F 39.4 °F 29.8 in SW 10.1 mph 12.5 mph 77 % 0 in
03:38 46.2 °F 39.6 °F 29.9 in SW 7.8 mph 12.5 mph 77 % 0 in
03:43 46.2 °F 39 °F 29.9 in SSW 7.8 mph 13 mph 76 % 0 in
03:48 46 °F 39.4 °F 29.9 in SW 8.1 mph 13.2 mph 77 % 0 in
03:53 46 °F 39.4 °F 29.9 in WSW 7.6 mph 13.2 mph 77 % 0 in
03:58 46.2 °F 39.6 °F 29.9 in SSW 5.4 mph 11.4 mph 77 % 0 in
04:03 46.2 °F 39.6 °F 29.9 in SW 8.7 mph 11.4 mph 77 % 0 in
04:08 46 °F 39.4 °F 29.9 in WSW 7.2 mph 9.2 mph 77 % 0 in
04:13 46 °F 39.4 °F 29.9 in SSW 6.5 mph 9.6 mph 77 % 0 in
04:18 46 °F 39.4 °F 29.9 in South 7.8 mph 12.3 mph 77 % 0 in
04:23 46 °F 39.4 °F 29.9 in WSW 6.3 mph 12.3 mph 77 % 0 in
04:28 46 °F 39.4 °F 29.9 in SSW 5.4 mph 13.2 mph 77 % 0 in
04:33 46 °F 39.4 °F 29.9 in SW 8.1 mph 13.2 mph 77 % 0 in
04:38 46 °F 39.4 °F 29.9 in WSW 8.7 mph 10.7 mph 77 % 0 in
04:43 46 °F 39.4 °F 29.9 in South 7.6 mph 11.9 mph 77 % 0 in
04:48 45.9 °F 39.6 °F 29.9 in SW 6.5 mph 11.9 mph 78 % 0 in
04:53 45.9 °F 39.6 °F 29.9 in SW 6.3 mph 10.3 mph 78 % 0 in
04:58 45.9 °F 39.6 °F 29.9 in WSW 6 mph 10.3 mph 78 % 0 in
05:03 45.9 °F 39.6 °F 29.9 in South 5.4 mph 10.3 mph 78 % 0 in
05:08 45.9 °F 39.6 °F 29.8 in SSW 5.4 mph 7.8 mph 78 % 0 in
05:13 45.9 °F 39.6 °F 29.8 in SSW 2.5 mph 8.7 mph 78 % 0 in
05:18 45.9 °F 39.6 °F 29.8 in SSW 3.4 mph 8.7 mph 79 % 0 in
05:23 45.9 °F 39.6 °F 29.8 in SSW 4 mph 6 mph 79 % 0 in
05:28 45.9 °F 39.9 °F 29.8 in South 6.5 mph 7.8 mph 80 % 0 in
05:33 45.9 °F 39.9 °F 29.8 in SSW 6.5 mph 7.8 mph 80 % 0 in
05:38 45.9 °F 39.9 °F 29.8 in SW 5.4 mph 6.9 mph 80 % 0 in
05:43 45.9 °F 39.9 °F 29.8 in SSW 5.6 mph 7.4 mph 80 % 0 in
05:48 45.9 °F 40.5 °F 29.8 in SW 10.1 mph 10.1 mph 81 % 0 in
05:53 45.9 °F 40.5 °F 29.8 in WSW 6.5 mph 10.1 mph 81 % 0 in
05:58 45.9 °F 40.5 °F 29.8 in SW 4.3 mph 10.1 mph 81 % 0 in
06:03 45.9 °F 40.6 °F 29.8 in WSW 6.3 mph 8.5 mph 82 % 0 in
06:08 45.9 °F 40.6 °F 29.8 in WSW 6.3 mph 8.5 mph 82 % 0 in
06:13 45.9 °F 40.6 °F 29.8 in SW 6.5 mph 10.1 mph 82 % 0 in
06:18 45.9 °F 40.6 °F 29.8 in WSW 5.4 mph 10.1 mph 82 % 0 in
06:23 45.9 °F 40.6 °F 29.9 in SW 8.1 mph 8.7 mph 82 % 0 in
06:28 45.9 °F 40.6 °F 29.9 in WSW 6.3 mph 8.7 mph 82 % 0 in
06:33 45.9 °F 41.2 °F 29.9 in SW 4.9 mph 8.5 mph 83 % 0 in
06:38 45.9 °F 40.8 °F 29.9 in WSW 7.8 mph 9.8 mph 83 % 0 in
06:43 45.7 °F 40.6 °F 29.9 in SW 5.8 mph 9.8 mph 83 % 0 in
06:48 45.7 °F 41 °F 29.9 in WSW 7.8 mph 8.7 mph 84 % 0 in
06:53 45.3 °F 41.2 °F 29.9 in WSW 8.1 mph 9.6 mph 85 % 0 in
06:59 45.1 °F 41 °F 29.9 in SW 5.6 mph 9.6 mph 85 % 0 in
07:04 45.1 °F 41.2 °F 29.9 in WSW 6 mph 8.7 mph 86 % 0 in
07:09 45.1 °F 41.2 °F 29.9 in SW 7.6 mph 8.7 mph 86 % 0 in
07:14 45.1 °F 41.4 °F 29.9 in SW 8.5 mph 10.3 mph 87 % 0 in
07:19 45.1 °F 41.7 °F 29.9 in SSW 4 mph 10.3 mph 88 % 0 in
07:23 45.1 °F 42.1 °F 29.8 in SSW 7.6 mph 10.5 mph 89 % 0 in
07:28 45.1 °F 42.3 °F 29.8 in SSW 8.7 mph 10.5 mph 90 % 0 in
07:33 45.1 °F 42.3 °F 29.8 in SW 6 mph 10.1 mph 90 % 0 in
07:39 45 °F 42.4 °F 29.9 in SSW 6.3 mph 8.1 mph 91 % 0 in
07:43 45 °F 42.6 °F 29.9 in SW 6.3 mph 11 mph 92 % 0 in
07:48 44.8 °F 42.4 °F 29.9 in SSW 6.9 mph 11 mph 92 % 0 in
07:53 44.4 °F 42.3 °F 29.8 in SW 7.2 mph 12.1 mph 92 % 0 in
07:58 44.4 °F 42.3 °F 29.8 in SSW 6.5 mph 12.1 mph 92 % 0 in
08:03 44.4 °F 42.3 °F 29.8 in SW 4.9 mph 10.1 mph 92 % 0 in
08:08 44.8 °F 42.8 °F 29.9 in SSW 6.5 mph 9.2 mph 93 % 0 in
08:13 45.1 °F 43.2 °F 29.9 in SSW 6.5 mph 9.8 mph 93 % 0 in
08:18 45.1 °F 43.3 °F 29.9 in WSW 6 mph 11 mph 94 % 0 in
08:23 45.1 °F 43.3 °F 29.9 in SSW 6.5 mph 11 mph 94 % 0 in
08:28 45.1 °F 43.3 °F 29.9 in SSW 6.5 mph 10.7 mph 93 % 0 in
08:33 45.1 °F 43.5 °F 29.9 in South 6.3 mph 12.1 mph 94 % 0 in
08:38 45.3 °F 43.9 °F 29.9 in WSW 8.7 mph 12.1 mph 94 % 0 in
08:43 45.3 °F 43.9 °F 29.9 in SW 9.4 mph 10.7 mph 94 % 0 in
08:48 45.7 °F 44.1 °F 29.9 in SSW 10.1 mph 10.3 mph 94 % 0 in
08:53 45.9 °F 44.1 °F 29.9 in SW 4.9 mph 10.7 mph 94 % 0 in
08:58 45.9 °F 44.2 °F 29.9 in SW 5.6 mph 10.7 mph 94 % 0 in
09:03 45.9 °F 44.2 °F 29.9 in SW 7.8 mph 10.1 mph 94 % 0 in
09:08 46 °F 44.2 °F 29.9 in WSW 5.8 mph 10.1 mph 93 % 0 in
09:13 46 °F 44.2 °F 29.9 in SW 6 mph 10.3 mph 93 % 0 in
09:18 46.2 °F 44.4 °F 29.9 in SSW 9.6 mph 10.3 mph 93 % 0 in
09:23 46.6 °F 44.6 °F 29.9 in SW 8.1 mph 10.7 mph 93 % 0 in
09:29 46.6 °F 44.8 °F 29.9 in SSW 6.9 mph 10.7 mph 93 % 0 in
09:34 46.8 °F 45 °F 29.9 in SW 7.8 mph 10.1 mph 93 % 0 in
09:39 46.9 °F 45.1 °F 29.8 in SW 4.9 mph 10.7 mph 93 % 0 in
09:44 47.1 °F 45.3 °F 29.8 in SW 6.5 mph 10.7 mph 93 % 0 in
09:49 47.3 °F 45.3 °F 29.8 in SW 10.1 mph 10.7 mph 93 % 0 in
09:54 47.3 °F 45.3 °F 29.9 in SSW 7.6 mph 10.7 mph 93 % 0 in
09:59 47.5 °F 45.7 °F 29.9 in WSW 6 mph 10.5 mph 93 % 0 in
10:04 47.5 °F 45.7 °F 29.9 in SW 9.8 mph 11 mph 93 % 0 in
10:09 47.7 °F 45.9 °F 29.9 in SW 6.5 mph 11 mph 93 % 0 in
10:14 47.7 °F 45.9 °F 29.9 in WSW 9.6 mph 11 mph 93 % 0 in
10:19 47.8 °F 45.9 °F 29.9 in SW 8.5 mph 10.7 mph 93 % 0 in
10:24 48 °F 46 °F 29.9 in SW 7.4 mph 10.7 mph 93 % 0 in
10:29 48 °F 46 °F 29.9 in WSW 10.1 mph 10.7 mph 93 % 0 in
10:34 48.2 °F 46.2 °F 29.9 in SSW 9.4 mph 10.7 mph 93 % 0 in
10:39 48.2 °F 46.2 °F 29.9 in WSW 10.5 mph 10.5 mph 93 % 0 in
10:44 48.2 °F 46.2 °F 29.9 in SSW 10.7 mph 11.2 mph 93 % 0 in
10:49 48.4 °F 46.2 °F 29.9 in SW 10.3 mph 12.8 mph 92 % 0 in
10:54 48.6 °F 46.4 °F 29.9 in SSW 8.7 mph 13.2 mph 92 % 0 in
10:59 48.7 °F 46.8 °F 29.9 in SSW 7.6 mph 13.2 mph 93 % 0 in
11:04 48.9 °F 46.9 °F 29.9 in SSW 12.3 mph 12.3 mph 93 % 0 in
11:09 49.1 °F 47.1 °F 29.9 in SSW 6 mph 17.7 mph 93 % 0 in
11:14 49.1 °F 47.1 °F 29.9 in SW 7.8 mph 17.7 mph 93 % 0 in
11:19 49.3 °F 47.3 °F 29.9 in SW 8.5 mph 13 mph 93 % 0 in
11:24 49.6 °F 47.5 °F 29.9 in SW 7.4 mph 13.4 mph 92 % 0 in
11:29 49.8 °F 47.7 °F 29.9 in SW 8.5 mph 13.4 mph 92 % 0 in
11:34 49.8 °F 47.7 °F 29.9 in WSW 11 mph 13.6 mph 92 % 0 in
11:39 50 °F 47.8 °F 29.9 in South 7.8 mph 14.3 mph 92 % 0 in
11:44 50.2 °F 47.7 °F 29.9 in WSW 10.3 mph 14.3 mph 91 % 0 in
11:49 50.2 °F 47.7 °F 29.9 in SW 9.6 mph 10.7 mph 91 % 0 in
11:54 50.2 °F 47.7 °F 29.9 in WSW 8.5 mph 12.3 mph 91 % 0 in
11:59 50.2 °F 47.7 °F 29.9 in SW 6 mph 12.3 mph 91 % 0 in
12:04 50.2 °F 47.7 °F 29.9 in WSW 8.5 mph 12.3 mph 91 % 0 in
12:09 50.2 °F 47.7 °F 29.9 in SW 8.1 mph 12.3 mph 91 % 0 in
12:14 50.5 °F 48.4 °F 29.9 in SSW 7.8 mph 12.3 mph 92 % 0 in
12:19 50.9 °F 48.6 °F 29.9 in WSW 12.3 mph 12.3 mph 92 % 0 in
12:24 50.9 °F 48.6 °F 29.8 in SSW 10.3 mph 13.2 mph 92 % 0 in
12:29 51.1 °F 48.7 °F 29.8 in WSW 10.7 mph 15.2 mph 92 % 0 in
12:30 51.1 °F 48.7 °F 29.8 in SW 10.1 mph 15.2 mph 92 % 0 in
12:35 51.3 °F 48.9 °F 29.8 in SW 10.7 mph 17.2 mph 92 % 0 in
12:40 51.4 °F 49.3 °F 29.8 in WSW 12.1 mph 17.2 mph 92 % 0 in
12:45 51.6 °F 48.9 °F 29.8 in SW 10.7 mph 15.4 mph 91 % 0 in
12:50 51.8 °F 49.5 °F 29.8 in SSW 7.8 mph 13 mph 92 % 0 in
12:55 52 °F 49.5 °F 29.8 in SW 7.4 mph 13.2 mph 91 % 0 in
13:00 51.8 °F 49.3 °F 29.8 in SSW 5.4 mph 13.2 mph 91 % 0 in
13:05 51.8 °F 49.3 °F 29.8 in SW 12.3 mph 12.5 mph 91 % 0 in
13:10 51.8 °F 49.3 °F 29.9 in SSW 6.5 mph 13.2 mph 91 % 0 in
13:15 52 °F 49.5 °F 29.9 in SW 13.4 mph 13.4 mph 91 % 0 in
13:20 51.8 °F 48.9 °F 29.9 in WSW 10.1 mph 13.4 mph 90 % 0 in
13:25 52 °F 49.1 °F 29.8 in SSW 5.8 mph 14.5 mph 90 % 0 in
13:30 52 °F 49.1 °F 29.8 in SW 8.5 mph 14.5 mph 90 % 0 in
13:35 52 °F 49.1 °F 29.8 in WSW 12.3 mph 16.1 mph 90 % 0 in
13:40 52 °F 49.1 °F 29.8 in WSW 6.3 mph 16.1 mph 90 % 0 in
13:45 52.3 °F 49.5 °F 29.8 in SSW 8.7 mph 14.8 mph 90 % 0 in
13:50 53.1 °F 50.4 °F 29.8 in South 7.8 mph 13.4 mph 91 % 0 in
13:55 52.9 °F 50 °F 29.8 in SW 8.7 mph 14.5 mph 90 % 0 in
14:00 52.5 °F 49.8 °F 29.8 in SSW 10.3 mph 14.5 mph 90 % 0 in
14:05 52.3 °F 49.5 °F 29.8 in SW 8.5 mph 15.2 mph 90 % 0 in
14:10 52 °F 49.5 °F 29.8 in SW 6.3 mph 15.7 mph 91 % 0 in
14:15 52 °F 49.6 °F 29.8 in SSW 7.4 mph 15.7 mph 92 % 0 in
14:20 52 °F 49.6 °F 29.8 in SSW 10.1 mph 13.2 mph 92 % 0 in
14:21 52 °F 49.6 °F 29.8 in WSW 7.8 mph 13.2 mph 92 % 0 in
14:26 52 °F 50 °F 29.8 in WSW 11 mph 12.1 mph 93 % 0 in
14:30 52.2 °F 50.2 °F 29.8 in SSW 8.7 mph 11.4 mph 93 % 0 in
14:36 52.2 °F 50.4 °F 29.8 in WSW 6 mph 13.4 mph 94 % 0 in
14:40 52.5 °F 50.7 °F 29.8 in WSW 6.5 mph 13.4 mph 94 % 0 in
14:46 52.5 °F 50.7 °F 29.8 in SSW 8.1 mph 13.4 mph 94 % 0 in
14:51 52.5 °F 50.5 °F 29.8 in SSW 8.1 mph 14.3 mph 93 % 0 in
14:55 52.5 °F 49.8 °F 29.8 in WSW 10.7 mph 20.1 mph 91 % 0 in
15:01 52.9 °F 50.4 °F 29.8 in WSW 10.1 mph 20.1 mph 91 % 0 in
15:05 53.1 °F 50.2 °F 29.8 in WSW 8.5 mph 13.2 mph 90 % 0 in
15:10 53.4 °F 50.4 °F 29.8 in SSW 10.3 mph 13.2 mph 89 % 0 in
15:16 54.3 °F 50.9 °F 29.8 in SSW 8.1 mph 13.4 mph 88 % 0 in
15:20 54.3 °F 50.4 °F 29.8 in SW 11 mph 14.5 mph 86 % 0 in
15:25 54.1 °F 49.8 °F 29.8 in SW 9.6 mph 14.8 mph 85 % 0 in
15:31 54.1 °F 49.5 °F 29.8 in SW 9.8 mph 15.4 mph 84 % 0 in
15:35 54.1 °F 49.5 °F 29.8 in SW 7.8 mph 15.4 mph 84 % 0 in
15:40 54 °F 49.3 °F 29.8 in SW 6 mph 13.2 mph 84 % 0 in
15:45 54 °F 48.9 °F 29.8 in SSW 12.1 mph 13 mph 83 % 0 in
15:50 54 °F 48.9 °F 29.8 in WSW 7.4 mph 13 mph 83 % 0 in
15:55 54 °F 48.7 °F 29.8 in SW 9.8 mph 12.8 mph 83 % 0 in
16:00 54 °F 48.7 °F 29.8 in SW 11 mph 14.5 mph 83 % 0 in
16:05 53.8 °F 48.7 °F 29.8 in SSW 10.3 mph 14.5 mph 83 % 0 in
16:10 53.8 °F 48.7 °F 29.8 in SSW 6.3 mph 17.7 mph 83 % 0 in
16:16 54 °F 48.7 °F 29.8 in WSW 9.8 mph 17.7 mph 83 % 0 in
16:21 54 °F 48.9 °F 29.8 in WSW 15.2 mph 15.9 mph 83 % 0 in
16:26 54 °F 47.8 °F 29.8 in WSW 17.2 mph 19.7 mph 80 % 0 in
16:31 54 °F 47.3 °F 29.8 in West 12.8 mph 19.7 mph 78 % 0 in
16:36 54 °F 47.7 °F 29.8 in WSW 11.4 mph 17.7 mph 79 % 0 in
16:41 54 °F 48 °F 29.8 in WSW 8.7 mph 17.4 mph 80 % 0 in
16:46 54 °F 48.4 °F 29.8 in SSW 5.8 mph 14.5 mph 81 % 0 in
16:51 54 °F 48.4 °F 29.8 in SW 8.7 mph 14.3 mph 81 % 0 in
16:56 54 °F 48.4 °F 29.8 in SSW 12.1 mph 13.2 mph 81 % 0 in
17:01 54 °F 48.4 °F 29.8 in SW 9.8 mph 13.2 mph 81 % 0 in
17:06 54 °F 48.4 °F 29.8 in SW 9.2 mph 16.8 mph 81 % 0 in
17:11 54 °F 48.4 °F 29.8 in WSW 11 mph 16.8 mph 81 % 0 in
17:16 54 °F 48.4 °F 29.8 in SSW 8.5 mph 17.4 mph 81 % 0 in
17:21 54 °F 48.4 °F 29.8 in SSW 11 mph 17.4 mph 81 % 0 in
17:26 54 °F 48 °F 29.8 in SSW 7.6 mph 12.8 mph 80 % 0 in
17:31 54 °F 48 °F 29.8 in SW 9.6 mph 14.3 mph 80 % 0 in
17:36 54 °F 48 °F 29.8 in SSW 8.5 mph 14.3 mph 80 % 0 in
17:41 54 °F 47.8 °F 29.8 in SSW 3.6 mph 13.2 mph 80 % 0 in
17:46 54 °F 47.8 °F 29.8 in SSW 6.7 mph 13.6 mph 80 % 0 in
17:51 54 °F 47.8 °F 29.8 in SSW 7.6 mph 13.6 mph 80 % 0 in
17:56 53.8 °F 47.7 °F 29.8 in SW 7.6 mph 12.8 mph 80 % 0 in
18:01 53.8 °F 47.7 °F 29.8 in SSW 11 mph 13.4 mph 80 % 0 in
18:06 53.8 °F 47.3 °F 29.8 in SSW 5.8 mph 13.4 mph 79 % 0 in
18:11 53.8 °F 47.3 °F 29.8 in SSW 7.2 mph 13 mph 79 % 0 in
18:16 53.4 °F 47.1 °F 29.8 in SW 8.1 mph 13 mph 79 % 0 in
18:21 53.4 °F 47.1 °F 29.8 in SSW 10.1 mph 11 mph 79 % 0 in
18:26 53.2 °F 46.9 °F 29.7 in SSW 10.1 mph 10.5 mph 79 % 0 in
18:31 53.2 °F 46.9 °F 29.7 in SSW 6.5 mph 11.4 mph 79 % 0 in
18:36 53.2 °F 46.8 °F 29.7 in SW 7.4 mph 11.4 mph 79 % 0 in
18:41 53.1 °F 46.9 °F 29.8 in West 7.8 mph 9.2 mph 80 % 0 in
18:46 53.1 °F 46.9 °F 29.8 in WSW 5.8 mph 10.3 mph 80 % 0 in
18:51 52.9 °F 47.1 °F 29.8 in SW 7.6 mph 10.3 mph 81 % 0 in
18:56 52.9 °F 47.1 °F 29.8 in SSW 12.3 mph 12.3 mph 81 % 0 in
19:01 52.9 °F 47.5 °F 29.8 in WSW 10.3 mph 14.8 mph 82 % 0 in
19:06 52.9 °F 47.5 °F 29.8 in SSW 6.3 mph 14.8 mph 82 % 0 in
19:11 52.5 °F 47.3 °F 29.8 in WSW 4 mph 10.5 mph 82 % 0 in
19:16 52.5 °F 47.3 °F 29.8 in SW 6.7 mph 11 mph 82 % 0 in
19:21 52.5 °F 47.7 °F 29.8 in SSW 6.7 mph 11 mph 83 % 0 in
19:26 52.5 °F 47.5 °F 29.8 in SSW 4.9 mph 10.3 mph 83 % 0 in
19:31 52.5 °F 47.5 °F 29.8 in SW 6 mph 10.5 mph 83 % 0 in
19:36 52.5 °F 47.8 °F 29.8 in SW 5.6 mph 11 mph 84 % 0 in
19:41 52.5 °F 47.8 °F 29.8 in WSW 5.6 mph 11 mph 84 % 0 in
19:46 52.5 °F 47.8 °F 29.8 in SSW 7.6 mph 12.1 mph 84 % 0 in
19:51 52.5 °F 47.8 °F 29.8 in WSW 7.6 mph 12.1 mph 84 % 0 in
19:56 52.3 °F 47.7 °F 29.8 in SSW 5.4 mph 11 mph 84 % 0 in
20:01 52.3 °F 47.7 °F 29.8 in SW 5.6 mph 11 mph 84 % 0 in
20:06 52.3 °F 47.7 °F 29.8 in WSW 9.8 mph 9.8 mph 84 % 0 in
20:11 52.3 °F 47.8 °F 29.8 in WSW 6.5 mph 9.8 mph 85 % 0 in
20:16 52.2 °F 47.7 °F 29.8 in WSW 9.4 mph 9.8 mph 85 % 0 in
20:21 52.2 °F 47.7 °F 29.8 in WSW 9.6 mph 10.5 mph 85 % 0 in
20:26 52 °F 47.7 °F 29.8 in WSW 6 mph 10.5 mph 85 % 0 in
20:31 51.8 °F 47.5 °F 29.8 in WSW 7.4 mph 10.7 mph 85 % 0 in
20:36 51.6 °F 47.1 °F 29.8 in WSW 7.8 mph 12.1 mph 85 % 0 in
20:41 51.6 °F 47.5 °F 29.8 in WSW 9.8 mph 14.5 mph 86 % 0 in
20:46 51.4 °F 47.5 °F 29.8 in WSW 10.1 mph 14.5 mph 86 % 0 in
20:51 51.3 °F 47.5 °F 29.8 in WSW 9.6 mph 13.6 mph 87 % 0 in
20:56 51.3 °F 47.5 °F 29.8 in WSW 10.5 mph 13.6 mph 87 % 0 in
21:01 51.3 °F 47.5 °F 29.8 in WSW 10.7 mph 14.8 mph 87 % 0 in
21:06 51.3 °F 47.5 °F 29.8 in WSW 7.6 mph 15.2 mph 87 % 0 in
21:11 51.1 °F 47.3 °F 29.7 in WSW 13 mph 15.2 mph 87 % 0 in
21:16 50.9 °F 47.1 °F 29.7 in SW 10.3 mph 14.8 mph 87 % 0 in
21:21 50.9 °F 47.1 °F 29.7 in WSW 12.3 mph 14.8 mph 87 % 0 in
21:26 50.9 °F 46.8 °F 29.7 in WSW 10.1 mph 14.3 mph 86 % 0 in
21:31 50.9 °F 46.8 °F 29.7 in WSW 8.1 mph 15.7 mph 86 % 0 in
21:36 50.9 °F 46.8 °F 29.7 in WSW 7.8 mph 15.7 mph 86 % 0 in
21:41 50.7 °F 46.8 °F 29.7 in WSW 7.6 mph 13 mph 86 % 0 in
21:46 50.7 °F 46.8 °F 29.7 in WSW 13.2 mph 13.2 mph 86 % 0 in
21:51 50.5 °F 46.6 °F 29.7 in WSW 6.3 mph 13.2 mph 86 % 0 in
21:56 50.5 °F 46.6 °F 29.7 in WSW 7.4 mph 13.2 mph 86 % 0 in
22:01 50.5 °F 46.6 °F 29.7 in SSW 7.4 mph 13.2 mph 86 % 0 in
22:06 50.5 °F 46.2 °F 29.7 in SW 6.7 mph 13.2 mph 85 % 0 in
22:11 50.5 °F 46.2 °F 29.7 in SW 7.4 mph 13.4 mph 85 % 0 in
22:16 50.5 °F 46.2 °F 29.7 in SSW 7.8 mph 13.4 mph 85 % 0 in
22:21 50.5 °F 46.2 °F 29.7 in SW 6 mph 10.1 mph 85 % 0 in
22:26 50.5 °F 46.2 °F 29.7 in WSW 7.8 mph 10.7 mph 85 % 0 in
22:31 50.5 °F 46.2 °F 29.7 in SW 7.6 mph 10.7 mph 85 % 0 in
22:36 50.5 °F 46.6 °F 29.7 in SW 5.4 mph 10.7 mph 86 % 0 in
22:41 50.7 °F 46.8 °F 29.7 in SSW 6.3 mph 11 mph 86 % 0 in
22:46 50.7 °F 46.8 °F 29.7 in SSW 5.4 mph 11 mph 86 % 0 in
22:51 50.5 °F 46.6 °F 29.7 in SSW 5.6 mph 9.8 mph 86 % 0 in
22:56 50.5 °F 46.6 °F 29.7 in SSW 4.3 mph 9.8 mph 86 % 0 in
23:01 50.4 °F 46.2 °F 29.7 in South 7.8 mph 7.8 mph 86 % 0 in
23:06 50.4 °F 46.2 °F 29.7 in SSW 4.9 mph 7.8 mph 86 % 0 in
23:11 50.2 °F 46.4 °F 29.7 in SSW 4 mph 7.6 mph 87 % 0 in
23:16 50.4 °F 46.6 °F 29.7 in SSW 5.6 mph 6.5 mph 87 % 0 in
23:21 50.4 °F 46.9 °F 29.7 in South 3.8 mph 6.5 mph 88 % 0 in
23:26 50.4 °F 46.9 °F 29.7 in South 4.3 mph 7.4 mph 88 % 0 in
23:31 50.5 °F 47.5 °F 29.7 in SSW 3.6 mph 7.4 mph 89 % 0 in
23:36 50.7 °F 47.7 °F 29.7 in SSW 4.9 mph 11.2 mph 89 % 0 in
23:41 50.7 °F 47.8 °F 29.7 in SSW 7.6 mph 11.2 mph 90 % 0 in
23:46 50.9 °F 48 °F 29.7 in SW 6.3 mph 10.3 mph 90 % 0 in
23:51 50.9 °F 47.7 °F 29.7 in SW 5.4 mph 10.5 mph 89 % 0 in
23:56 50.9 °F 47.7 °F 29.7 in SSW 7.8 mph 10.5 mph 89 % 0 in
Le Gheer Warneton
Courtoisie de Weather Underground - 2.25 mb

Mise a jour : 18/12/2017 23:25:11
Généré par Cumulus 1.9.4 (1099)